Location: La Brug�re
(44.4397°N, 4.1050°E)
Time: 14:31:36
(UTC+00:00)

Daily predictions for brighter satellites

Satellite Brightness Start Highest point End
(mag) Time Altitude Azimuth Time Altitude Azimuth Time Altitude Azimuth
BREEZE-M DEB (TANK) 3.9 19:24:27 10° WNW 19:28:46 84° N 19:35:50 10° E
Cosmos 968 Rocket 3.7 19:31:22 10° SSW 19:36:37 80° WNW 19:41:52 10° NNE
NOSS 3-3 (A) 4.3 19:32:14 10° S 19:37:22 37° ESE 19:43:06 10° NE
NOSS 3-3 (C) 4.3 19:32:21 10° S 19:37:29 37° ESE 19:43:12 10° NE
Intercosmos 24 4.0 19:36:55 10° SSE 19:40:29 44° E 19:43:55 10° NNE
Cosmos 1354 Rocket 4.3 19:35:52 10° S 19:40:48 44° ESE 19:45:47 10° NNE
S3M 4.1 19:36:37 10° S 19:42:54 65° E 19:49:10 10° NNE
Helios 1A Rocket 4.4 19:40:28 10° SSW 19:44:20 39° W 19:48:14 10° NNW
Sich 1 3.2 19:40:48 10° N 19:45:05 58° E 19:49:23 10° SSE
OBJECT-B 1.4 19:42:52 10° S 19:46:02 58° W 19:49:15 10° NNW
IRS-1A Rocket 4.4 19:44:56 10° SSE 19:50:42 86° ENE 19:56:37 10° NNW
BREEZE M DEB (TANK) 3.7 19:49:52 10° WNW 19:56:24 41° N 19:58:58 10° ENE
Terra 4.0 19:56:05 10° ENE 19:57:16 11° ENE 19:58:28 10° NE
Cosmos 2082 Rocket 4.0 19:55:32 10° N 19:59:24 18° NE 20:03:16 10° E
Cosmos 1553 Rocket 4.4 19:53:42 10° SSW 19:59:48 67° W 20:06:02 10° N
OE (NEXTSAT) 4.5 19:57:26 10° WNW 20:00:53 74° N 20:04:07 12° E
Cosmos 1151 Rocket 3.5 19:57:14 10° SSE 20:01:20 42° E 20:05:29 10° NNE
SPOT 3 Rocket 3.8 19:56:54 10° SSE 20:01:52 55° ENE 20:06:54 10° N
X-37B 0.6 19:59:08 10° W 20:02:19 69° SSW 20:04:43 16° ESE
Cosmos 1437 Rocket 3.7 19:58:38 10° SSW 20:02:25 51° WNW 20:06:18 10° N
Cosmos 2084 3.5 20:01:39 10° SSW 20:05:38 52° ESE 20:09:45 10° NE
COSMOS 2406 4.1 20:01:07 10° N 20:06:17 35° NE 20:10:34 14° ESE
Resurs 01 Rocket 1.7 20:02:15 11° SSE 20:06:30 64° ENE 20:10:55 10° N
USA 290 2.7 20:05:28 10° NNW 20:08:39 58° WSW 20:11:34 12° S
USA 186 4.3 20:08:14 10° WSW 20:09:24 12° W 20:10:31 10° WNW
Meteor 1-20 Rocket 4.2 20:05:34 10° NNW 20:11:12 86° W 20:16:42 10° S
Cosmos 1933 3.5 20:08:57 10° SSW 20:13:00 78° W 20:17:02 10° N
Cosmos 783 Rocket 4.5 20:12:52 10° NNW 20:18:08 74° ENE 20:22:13 17° SSE
Cosmos 773 Rocket 4.2 20:13:33 10° NNW 20:18:50 60° ENE 20:22:41 18° SE
MetOp-B 4.3 20:15:10 15° SSE 20:19:38 62° ENE 20:24:55 10° N
Cosmos 2278 Rocket 2.6 20:18:41 10° S 20:23:53 39° ESE 20:29:07 10° NE
Spot 2 Rocket 4.1 20:22:06 19° SE 20:25:21 41° ENE 20:30:04 10° N
BREEZE-M DEB (TANK) 3.2 20:24:05 10° WNW 20:26:04 24° N 20:27:53 10° ENE
Cosmos 1602 3.7 20:22:38 10° N 20:26:31 86° W 20:29:33 16° S
Cosmos 1782 2.7 20:22:40 10° S 20:26:39 81° E 20:30:40 10° N
Landsat 7 3.8 20:23:02 15° SSE 20:26:56 80° ENE 20:31:43 10° N
IGS 5A 3.4 20:24:31 15° SSE 20:27:54 87° W 20:32:04 10° NNW
USA 305 4.0 20:24:03 10° NW 20:28:02 37° NNE 20:31:23 14° E
GPS 2-04 Rocket1 4.1 20:25:02 10° SW 20:28:10 21° S 20:28:42 21° SSE
Cosmos 1844 Rocket 4.3 20:23:12 10° WSW 20:28:20 37° NW 20:33:31 10° NNE
Cosmos 1242 Rocket 3.4 20:25:49 10° SSW 20:29:18 50° WNW 20:32:46 10° N
Cosmos 1515 Rocket 4.1 20:29:37 21° SSE 20:32:03 40° E 20:36:10 10° NNE
ERS-1 Rocket 3.9 20:30:20 19° ESE 20:33:02 32° ENE 20:37:29 10° N
BREEZE-M DEB (TANK) 3.7 20:25:48 10° WNW 20:33:57 51° SW 20:35:39 25° SSE
CZ-4C R/B 3.1 20:30:35 10° NW 20:37:50 73° NE 20:43:47 21° SE
Cosmos 1633 Rocket 3.2 20:35:56 10° NNW 20:40:21 74° W 20:43:38 18° S
Akebono 3.6 20:41:45 10° NNW 20:43:57 82° NE 20:43:57 82° NE
ATLAS 5 CENTAUR R/B 3.0 20:41:31 10° NW 20:47:05 50° WSW 20:51:47 18° S
USA 306 3.7 20:43:20 10° NW 20:47:28 46° NNE 20:49:58 21° E
Cosmos 1812 2.7 20:47:18 29° SSE 20:49:07 64° E 20:52:58 10° NNE
Cosmos 1328 Rocket 3.7 20:44:42 10° SSW 20:49:07 74° W 20:53:33 10° N
Cosmos 1777 Rocket 3.9 20:45:38 10° SSW 20:50:50 86° ESE 20:56:04 10° NNE
SWARM C 4.4 20:48:21 10° N 20:51:40 69° E 20:52:33 44° SSE
SWARM A 4.1 20:48:27 10° N 20:51:47 72° E 20:52:43 43° SSE
Cosmos 1470 Rocket 3.5 20:48:09 10° N 20:52:40 85° E 20:55:00 28° S
ARIANE 5 R/B 2.6 20:52:22 32° SSE 20:54:17 68° ENE 20:58:36 10° N
CARTOSAT-1 3.5 20:56:42 34° SSE 20:58:29 69° ENE 21:02:47 10° N
Cosmos 1666 2.8 20:55:59 10° N 20:59:40 55° E 21:00:28 44° SE
Cosmos 1833 Rocket 2.6 20:58:35 10° NNW 21:04:17 89° ENE 21:07:04 32° SSE
Meteor 1-5 Rocket 4.0 21:00:17 10° N 21:05:41 87° E 21:08:22 30° S
BREEZE-M R/B 3.7 21:03:42 10° WNW 21:05:54 28° N 21:07:49 13° NE
Cosmos 1437 4.1 21:05:01 17° SW 21:06:43 31° WNW 21:09:19 10° N
Cosmos 1933 Rocket 3.4 21:02:33 10° N 21:06:55 79° E 21:08:26 40° SSE
Cosmos 2154 Rocket 4.5 21:01:00 10° N 21:07:03 45° ENE 21:09:43 30° SE
Meteor 1-10 Rocket 4.2 21:05:30 28° S 21:08:30 65° E 21:14:06 10° NNE
Cosmos 1536 3.9 21:06:35 10° NNE 21:10:10 29° ENE 21:10:33 29° E
USA 307 3.2 21:09:55 10° NW 21:14:10 62° NNE 21:15:37 38° E
Cosmos 2184 Rocket 3.9 21:08:21 10° N 21:14:35 74° E 21:17:33 33° SSE
H-2A R/B 3.8 21:14:03 10° NNE 21:18:05 45° E 21:18:18 44° ESE
Cosmos 2074 Rocket 4.0 21:12:46 10° N 21:19:07 82° E 21:22:14 32° SSE
NOSS 3-4 (A) 3.9 21:13:03 10° NW 21:20:02 72° NE 21:24:06 31° SE
NOSS 3-4 (C) 4.0 21:13:09 10° NW 21:20:08 71° NE 21:24:12 30° SE
USA 245 4.2 21:20:52 23° WNW 21:20:52 23° WNW 21:22:22 10° NW
JB-3 4.4 21:16:42 10° N 21:20:35 74° WNW 21:21:59 37° SSW
SJ 16-02 1.3 21:19:29 28° SSW 21:21:47 85° WNW 21:26:15 10° NNE
Nadezhda 1 Rocket 4.1 21:19:51 34° SSE 21:22:31 58° E 21:28:38 10° NNE
SPOT 1/Viking Rocket 4.4 21:23:34 21° SSW 21:26:39 43° W 21:31:36 10° NNW
USA 308 2.9 21:23:30 10° NW 21:27:49 75° NE 21:28:43 53° ESE
ATLAS 2AS CENTAUR R/B 3.2 21:26:16 10° NNW 21:33:32 55° NE 21:37:04 29° ESE
Iridium 4 Rocket 3.9 21:30:58 28° SSW 21:34:09 73° W 21:40:06 10° N
Terra 1.7 21:33:01 51° SSE 21:34:12 80° ENE 21:38:59 10° N
Cosmos 1544 3.9 21:34:05 10° N 21:37:03 38° ENE 21:37:03 38° ENE
X-37B 3.2 21:36:15 10° W 21:36:59 14° WSW 21:36:59 14° WSW
SPOT 5 3.2 21:38:33 40° SSW 21:40:19 66° W 21:45:35 10° NNW
Cosmos 1610 Rocket 4.4 21:35:49 10° N 21:41:59 79° E 21:44:05 44° SSE
Resurs 01 Rocket 4.2 21:41:17 10° WSW 21:43:25 13° W 21:45:34 10° WNW
Cosmos 2082 Rocket 2.1 21:38:35 10° NNW 21:44:14 85° WSW 21:45:50 49° SSE
Cosmos 158 Rocket 3.8 21:40:56 10° NNW 21:45:49 74° WSW 21:46:51 54° S
Cosmos 2228 Rocket 3.1 21:45:35 54° SSW 21:46:32 76° W 21:51:01 10° N
Cosmos 2112 Rocket 4.4 21:41:43 10° NNW 21:46:59 54° ENE 21:48:11 44° ESE
Cosmos 44 4.1 21:45:10 10° NNW 21:50:27 48° NE 21:51:59 37° E
COSMOS 2406 4.1 21:45:23 10° NW 21:50:37 39° WSW 21:52:38 29° SSW
Cosmos 1271 Rocket 4.0 21:54:20 30° WSW 21:55:37 38° WNW 21:59:24 10° N
Meteor 1-27 Rocket 3.9 21:58:45 39° SSW 22:01:04 76° W 22:07:01 10° N
Cosmos 2341 Rocket 4.2 21:56:09 10° N 22:02:31 62° E 22:04:08 47° SE
Cosmos 2278 Rocket 3.7 22:02:54 10° WSW 22:08:01 34° NW 22:13:10 10° N
USA 305 3.5 22:03:58 10° WNW 22:07:27 47° WSW 22:07:27 47° WSW
Cosmos 1937 Rocket 3.5 22:09:32 59° ESE 22:09:32 59° ESE 22:14:35 10° NNE
Cosmos 1862 Rocket 4.4 22:10:39 37° ENE 22:10:39 37° ENE 22:13:57 10° NNE
Milstar 3 4.3 22:01:43 10° WSW 22:10:47 29° SSW 22:10:47 29° SSW
ERS-1 Rocket 4.2 22:10:19 28° SW 22:11:47 33° W 22:16:18 10° NNW
SL-24 R/B - RUBIN 2 3.9 22:07:01 10° NNW 22:12:30 69° NE 22:13:07 62° E
Cosmos 1943 Rocket 2.2 22:13:55 57° ESE 22:14:05 57° ESE 22:19:34 10° NNE
Cosmos 1680 Rocket 3.4 22:08:50 10° NNW 22:14:11 79° WSW 22:14:52 66° S
Cosmos 1869 Rocket 4.2 22:11:40 10° NNW 22:15:47 43° W 22:16:04 43° WSW
Cosmos 2369 Rocket 3.2 22:17:10 30° E 22:17:10 30° E 22:21:17 10° NE
Cosmos 2218 Rocket 4.3 22:10:50 10° N 22:16:58 52° ENE 22:18:16 45° ESE
Centaur D AC-29 4.3 21:27:07 10° WSW 22:18:31 33° SSW 22:20:13 32° S
Meteor 1-19 Rocket 4.3 22:19:24 53° E 22:19:32 53° E 22:24:46 10° NNE
Gbstr 26 Del rocket 4.5 22:12:48 10° WNW 22:20:11 61° NNE 22:23:48 26° E
Cosmos 858 Rocket 4.3 22:24:21 76° SE 22:24:31 77° ESE 22:29:46 10° NNE
Cosmos 1238 Rocket 3.6 22:18:22 10° N 22:24:33 74° E 22:25:13 66° SE
CZ-4C R/B 4.1 22:19:43 10° NW 22:26:12 31° WSW 22:28:58 26° SW
USA 306 4.3 22:23:24 10° WNW 22:26:02 30° W 22:26:02 30° W
Meteor 2-9 Rocket 4.3 22:22:10 10° N 22:27:55 63° ENE 22:28:36 58° ESE
Okean 1 4.0 22:29:36 52° NNE 22:29:36 52° NNE 22:32:41 10° N
Cosmos 1340 Rocket 3.6 22:27:35 10° NNW 22:31:03 46° WNW 22:31:03 46° WNW
Cosmos 1707 Rocket 3.9 22:32:59 57° WNW 22:32:59 57° WNW 22:37:20 10° N
Cosmos 1818 3.6 22:28:01 10° NNW 22:33:31 70° NE 22:34:12 62° E
DNEPR-1 R/B 4.0 22:34:46 67° SSW 22:35:35 87° ESE 22:40:40 10° NE
SL-8 Rocket 3.9 22:34:02 10° N 22:40:25 90° W 22:41:32 63° S
ALOS 2 3.4 22:41:06 42° ENE 22:41:06 42° ENE 22:44:55 10° N
Meteor 2-4 Rocket 3.9 22:47:05 54° E 22:47:11 54° E 22:52:41 10° NNE
Cosmos 1898 Rocket 4.3 22:47:28 36° WSW 22:49:04 47° WNW 22:54:14 10° N
Cosmos 1743 4.3 22:46:48 10° NNW 22:49:32 30° WNW 22:49:32 30° WNW
BREEZE-M DEB (TANK) 4.4 22:40:27 10° WNW 22:56:39 77° NNE 22:58:41 41° E
SJ 16-02 4.3 23:00:00 10° WNW 23:01:06 11° NW 23:02:13 10° NW
Cosmos 1975 3.8 22:57:36 10° N 23:00:28 46° NNW 23:00:28 46° NNW
RESURS DK-1 3.7 23:00:01 10° N 23:03:31 33° NE 23:03:31 33° NE
Cosmos 1733 Rocket 4.2 23:01:30 10° NNW 23:04:54 37° WNW 23:04:54 37° WNW
Cosmos 1461 3.4 23:07:22 66° N 23:07:22 66° N 23:11:30 10° NNE
Cosmos 372 Rocket 3.9 23:07:01 78° WNW 23:07:01 78° WNW 23:12:05 10° NNE
Cosmos 864 Rocket 4.4 23:01:37 10° NNW 23:07:45 71° W 23:08:29 64° SW
Cosmos 2242 Rocket 4.2 23:09:01 50° NE 23:09:01 50° NE 23:12:30 10° NNE
SeaSat 1 3.9 23:05:39 10° NE 23:08:32 25° E 23:08:32 25° E
Cosmos 1959 Rocket 4.5 23:04:20 10° NNW 23:10:30 66° W 23:11:16 60° SW
Terra 4.2 23:11:54 11° W 23:12:32 12° W 23:14:13 10° WNW
USA 215 3.8 23:13:56 16° E 23:19:02 55° NNE 23:25:24 10° NW
Cosmos 1908 Rocket 4.1 23:16:02 10° NNW 23:19:43 57° NNW 23:19:43 57° NNW
ATLAS 2AS CENTAUR R/B 3.4 23:17:44 10° NW 23:24:12 37° WSW 23:24:29 37° WSW
Cosmos 1867 3.6 23:25:56 70° E 23:25:56 70° E 23:30:58 10° NE
Cosmos 1125 Rocket 4.0 23:26:49 49° ENE 23:26:49 49° ENE 23:31:15 10° NNE
Nimbus 7 Rocket 4.2 23:20:21 10° NNE 23:26:15 78° ESE 23:26:36 75° SE
Cosmos 2082 Rocket 4.4 23:25:23 10° WNW 23:27:24 12° W 23:27:41 12° W
ATLAS CENTAUR R/B 3.2 23:38:29 22° NE 23:38:29 22° NE 23:39:58 10° NE
Cosmos 2344 4.5 23:30:45 10° NW 23:39:59 71° NE 23:51:08 15° SE
Cosmos 1821 Rocket 3.9 23:34:15 10° N 23:40:41 86° W 23:41:25 72° S
Cosmos 1934 Rocket 4.2 23:35:13 10° N 23:41:15 55° ENE 23:42:09 50° ESE
Cosmos 1703 Rocket 4.4 23:48:52 44° NW 23:48:52 44° NW 23:52:26 10° N
Okean 3 4.2 23:50:46 51° N 23:50:46 51° N 23:53:59 10° N
Cosmos 1782 Rocket 4.3 23:47:56 10° NNW 23:51:22 49° NW 23:51:22 49° NW
Lacrosse 5 3.5 23:54:52 24° E 23:54:52 24° E 23:57:24 10° ENE
